Time,TemperatureF,DewpointF,PressureIn,WindDirection,WindDirectionDegrees,WindSpeedMPH,WindSpeedGustMPH,Humidity,HourlyPrecipIn,Conditions,Clouds,dailyrainin,SoftwareType,DateUTC
2013-04-17 00:05:00,2.0,-4.4,30.36,NNE,13,3.0,3.0,74,0.00,,,0.00,Wunderground v.1.15,2013-04-17 08:05:00,
2013-04-17 00:10:00,2.4,-4.6,30.36,NNE,15,3.0,3.0,72,0.00,,,0.00,Wunderground v.1.15,2013-04-17 08:10:00,
2013-04-17 00:20:00,1.5,-4.9,30.36,NNE,15,2.0,2.0,74,0.00,,,0.00,Wunderground v.1.15,2013-04-17 08:20:00,
2013-04-17 00:25:00,0.7,-7.1,30.36,NNE,15,1.0,2.0,69,0.00,,,0.00,Wunderground v.1.15,2013-04-17 08:25:00,
2013-04-17 00:35:00,-0.4,-6.4,30.36,NNE,15,1.0,2.0,75,0.00,,,0.00,Wunderground v.1.15,2013-04-17 08:35:00,
2013-04-17 00:45:00,1.5,-4.6,30.36,NNE,15,2.0,2.0,75,0.00,,,0.00,Wunderground v.1.15,2013-04-17 08:45:00,
2013-04-17 00:55:00,0.1,-6.5,30.36,NNE,15,1.0,2.0,73,0.00,,,0.00,Wunderground v.1.15,2013-04-17 08:55:00,
2013-04-17 01:00:00,-1.2,-8.6,30.36,NNE,15,0.0,1.0,70,0.00,,,0.00,Wunderground v.1.15,2013-04-17 09:00:00,
2013-04-17 01:05:00,-2.4,-8.9,30.36,NNE,15,0.0,2.0,73,0.00,,,0.00,Wunderground v.1.15,2013-04-17 09:05:00,
2013-04-17 01:15:00,0.0,-6.0,30.36,NNE,15,1.0,2.0,75,0.00,,,0.00,Wunderground v.1.15,2013-04-17 09:15:00,
2013-04-17 01:20:00,-0.6,-7.5,30.36,NNE,15,0.0,1.0,72,0.00,,,0.00,Wunderground v.1.15,2013-04-17 09:20:00,
2013-04-17 01:30:00,-0.8,-7.1,30.36,NNE,15,0.0,1.0,74,0.00,,,0.00,Wunderground v.1.15,2013-04-17 09:30:00,
2013-04-17 01:35:00,-1.4,-8.0,30.36,NNE,15,0.0,1.0,73,0.00,,,0.00,Wunderground v.1.15,2013-04-17 09:35:00,
2013-04-17 01:45:00,-1.2,-7.2,30.36,NNE,15,1.0,1.0,75,0.00,,,0.00,Wunderground v.1.15,2013-04-17 09:45:00,
2013-04-17 01:55:00,-1.6,-7.6,30.36,NNE,15,0.0,1.0,75,0.00,,,0.00,Wunderground v.1.15,2013-04-17 09:55:00,
2013-04-17 02:00:00,-2.0,-8.0,30.36,NNE,15,1.0,2.0,75,0.00,,,0.00,Wunderground v.1.15,2013-04-17 10:00:00,
2013-04-17 02:10:00,-2.4,-8.4,30.36,NNE,15,1.0,1.0,75,0.00,,,0.00,Wunderground v.1.15,2013-04-17 10:10:00,
2013-04-17 02:20:00,-3.3,-9.8,30.36,NNE,15,0.0,0.0,73,0.00,,,0.00,Wunderground v.1.15,2013-04-17 10:20:00,
2013-04-17 02:30:00,-3.5,-9.4,30.37,NNE,15,0.0,0.0,75,0.00,,,0.00,Wunderground v.1.15,2013-04-17 10:30:00,
2013-04-17 02:40:00,-3.3,-9.0,30.37,NNE,15,0.0,0.0,76,0.00,,,0.00,Wunderground v.1.15,2013-04-17 10:40:00,
2013-04-17 02:50:00,-2.4,-8.4,30.37,NNE,15,1.0,2.0,75,0.00,,,0.00,Wunderground v.1.15,2013-04-17 10:50:00,
2013-04-17 03:00:00,-3.1,-8.8,30.37,NNE,15,2.0,3.0,76,0.00,,,0.00,Wunderground v.1.15,2013-04-17 11:00:00,
2013-04-17 03:05:00,-2.0,-8.0,30.37,NNE,15,2.0,3.0,75,0.00,,,0.00,Wunderground v.1.15,2013-04-17 11:05:00,
2013-04-17 03:15:00,-2.6,-9.4,30.37,NNE,15,2.0,5.0,72,0.00,,,0.00,Wunderground v.1.15,2013-04-17 11:15:00,
2013-04-17 03:25:00,-2.6,-9.1,30.37,NNE,15,1.0,2.0,73,0.00,,,0.00,Wunderground v.1.15,2013-04-17 11:25:00,
2013-04-17 03:35:00,-3.5,-10.3,30.38,NNE,15,0.0,1.0,72,0.00,,,0.00,Wunderground v.1.15,2013-04-17 11:35:00,
2013-04-17 03:45:00,-3.7,-9.9,30.38,NNE,15,1.0,1.0,74,0.00,,,0.00,Wunderground v.1.15,2013-04-17 11:45:00,
2013-04-17 03:50:00,-3.1,-9.3,30.38,NNE,15,1.0,2.0,74,0.00,,,0.00,Wunderground v.1.15,2013-04-17 11:50:00,
2013-04-17 04:00:00,-3.5,-10.0,30.38,NNE,15,2.0,2.0,73,0.00,,,0.00,Wunderground v.1.15,2013-04-17 12:00:00,
2013-04-17 04:10:00,-2.4,-8.7,30.38,NNE,15,1.0,1.0,74,0.00,,,0.00,Wunderground v.1.15,2013-04-17 12:10:00,
2013-04-17 04:15:00,-2.8,-9.6,30.38,NNE,15,1.0,1.0,72,0.00,,,0.00,Wunderground v.1.15,2013-04-17 12:15:00,
2013-04-17 04:25:00,-3.5,-10.3,30.38,NNE,15,1.0,1.0,72,0.00,,,0.00,Wunderground v.1.15,2013-04-17 12:25:00,
2013-04-17 04:35:00,-3.3,-9.5,30.38,NNE,15,0.0,0.0,74,0.00,,,0.00,Wunderground v.1.15,2013-04-17 12:35:00,
2013-04-17 04:45:00,-4.6,-11.1,30.38,NNE,15,0.0,1.0,73,0.00,,,0.00,Wunderground v.1.15,2013-04-17 12:45:00,
2013-04-17 04:55:00,-3.1,-9.3,30.38,NNE,15,2.0,3.0,74,0.00,,,0.00,Wunderground v.1.15,2013-04-17 12:55:00,
2013-04-17 05:00:00,-2.6,-9.1,30.38,NNE,15,2.0,2.0,73,0.00,,,0.00,Wunderground v.1.15,2013-04-17 13:00:00,
2013-04-17 05:10:00,-2.2,-9.3,30.38,NNE,15,1.0,1.0,71,0.00,,,0.00,Wunderground v.1.15,2013-04-17 13:10:00,
2013-04-17 05:20:00,-2.2,-9.0,30.38,NNE,15,2.0,2.0,72,0.00,,,0.00,Wunderground v.1.15,2013-04-17 13:20:00,
2013-04-17 05:30:00,-3.3,-10.4,30.38,NNE,15,1.0,1.0,71,0.00,,,0.00,Wunderground v.1.15,2013-04-17 13:30:00,
2013-04-17 05:40:00,-3.5,-10.3,30.38,NNE,15,1.0,1.0,72,0.00,,,0.00,Wunderground v.1.15,2013-04-17 13:40:00,
2013-04-17 05:50:00,-3.7,-10.7,30.38,NNE,15,1.0,1.0,71,0.00,,,0.00,Wunderground v.1.15,2013-04-17 13:50:00,
2013-04-17 05:55:00,-4.3,-11.3,30.38,NNE,15,2.0,2.0,71,0.00,,,0.00,Wunderground v.1.15,2013-04-17 13:55:00,
2013-04-17 06:05:00,-2.8,-9.6,30.38,NNE,15,2.0,3.0,72,0.00,,,0.00,Wunderground v.1.15,2013-04-17 14:05:00,
2013-04-17 06:15:00,-1.8,-8.6,30.38,NNE,15,2.0,3.0,72,0.00,,,0.00,Wunderground v.1.15,2013-04-17 14:15:00,
2013-04-17 06:25:00,-1.6,-9.3,30.38,NNE,15,1.0,2.0,69,0.00,,,0.00,Wunderground v.1.15,2013-04-17 14:25:00,
2013-04-17 06:35:00,-1.6,-8.4,30.38,NNE,15,1.0,2.0,72,0.00,,,0.00,Wunderground v.1.15,2013-04-17 14:35:00,
2013-04-17 06:40:00,-0.6,-7.8,30.38,NNE,15,2.0,2.0,71,0.00,,,0.00,Wunderground v.1.15,2013-04-17 14:40:00,
2013-04-17 06:50:00,-2.4,-10.1,30.38,NNE,15,2.0,3.0,69,0.00,,,0.00,Wunderground v.1.15,2013-04-17 14:50:00,
2013-04-17 07:00:00,-2.0,-9.4,30.38,NNE,15,2.0,2.0,70,0.00,,,0.00,Wunderground v.1.15,2013-04-17 15:00:00,
2013-04-17 07:10:00,-2.8,-9.9,30.38,NNE,15,1.0,2.0,71,0.00,,,0.00,Wunderground v.1.15,2013-04-17 15:10:00,
2013-04-17 07:20:00,-3.9,-10.9,30.38,NNE,15,1.0,1.0,71,0.00,,,0.00,Wunderground v.1.15,2013-04-17 15:20:00,
2013-04-17 07:30:00,-3.3,-9.5,30.38,NNE,15,1.0,5.0,74,0.00,,,0.00,Wunderground v.1.15,2013-04-17 15:30:00,
2013-04-17 07:40:00,-0.4,-7.9,30.38,NNE,15,4.0,4.0,70,0.00,,,0.00,Wunderground v.1.15,2013-04-17 15:40:00,
2013-04-17 07:50:00,-0.2,-8.0,30.39,NNE,15,2.0,2.0,69,0.00,,,0.00,Wunderground v.1.15,2013-04-17 15:50:00,
2013-04-17 07:55:00,-1.8,-9.8,30.39,NNE,15,1.0,2.0,68,0.00,,,0.00,Wunderground v.1.15,2013-04-17 15:55:00,
2013-04-17 08:05:00,-2.0,-9.1,30.39,NNE,15,1.0,3.0,71,0.00,,,0.00,Wunderground v.1.15,2013-04-17 16:05:00,
2013-04-17 08:15:00,-1.2,-8.3,30.39,NNE,15,2.0,4.0,71,0.00,,,0.00,Wunderground v.1.15,2013-04-17 16:15:00,
2013-04-17 08:25:00,-0.4,-7.3,30.39,NNE,15,2.0,2.0,72,0.00,,,0.00,Wunderground v.1.15,2013-04-17 16:25:00,
2013-04-17 08:35:00,-0.2,-8.0,30.39,NNE,15,3.0,3.0,69,0.00,,,0.00,Wunderground v.1.15,2013-04-17 16:35:00,
2013-04-17 08:40:00,-0.4,-8.2,30.39,NNE,15,3.0,3.0,69,0.00,,,0.00,Wunderground v.1.15,2013-04-17 16:40:00,
2013-04-17 08:50:00,0.5,-7.0,30.40,NNE,15,4.0,6.0,70,0.00,,,0.00,Wunderground v.1.15,2013-04-17 16:50:00,
2013-04-17 08:55:00,0.9,-6.9,30.40,NNE,16,5.0,6.0,69,0.00,,,0.00,Wunderground v.1.15,2013-04-17 16:55:00,
2013-04-17 09:05:00,1.3,-6.5,30.40,NNE,16,5.0,5.0,69,0.00,,,0.00,Wunderground v.1.15,2013-04-17 17:05:00,
2013-04-17 09:15:00,2.0,-6.1,30.40,NNE,16,3.0,4.0,68,0.00,,,0.00,Wunderground v.1.15,2013-04-17 17:15:00,
2013-04-17 09:20:00,2.8,-6.0,30.40,NNE,16,2.0,5.0,66,0.00,,,0.00,Wunderground v.1.15,2013-04-17 17:20:00,
2013-04-17 09:30:00,4.7,-3.9,30.40,NNE,19,5.0,5.0,67,0.00,,,0.00,Wunderground v.1.15,2013-04-17 17:30:00,
2013-04-17 09:40:00,6.7,-2.9,30.40,NNE,19,3.0,3.0,64,0.00,,,0.00,Wunderground v.1.15,2013-04-17 17:40:00,
2013-04-17 09:50:00,6.9,-2.7,30.40,NNE,19,3.0,3.0,64,0.00,,,0.00,Wunderground v.1.15,2013-04-17 17:50:00,
2013-04-17 10:00:00,9.0,-1.4,30.41,NNE,19,1.0,2.0,62,0.00,,,0.00,Wunderground v.1.15,2013-04-17 18:00:00,
2013-04-17 10:05:00,8.6,-2.1,30.41,NNE,19,2.0,3.0,61,0.00,,,0.00,Wunderground v.1.15,2013-04-17 18:05:00,
2013-04-17 10:15:00,8.6,-1.8,30.41,NNE,19,4.0,6.0,62,0.00,,,0.00,Wunderground v.1.15,2013-04-17 18:15:00,
2013-04-17 10:25:00,8.4,-2.0,30.41,NNE,19,3.0,5.0,62,0.00,,,0.00,Wunderground v.1.15,2013-04-17 18:25:00,
2013-04-17 10:35:00,11.2,0.4,30.41,NNE,19,1.0,2.0,61,0.00,,,0.00,Wunderground v.1.15,2013-04-17 18:35:00,
2013-04-17 10:45:00,12.1,1.2,30.41,NNE,19,4.0,6.0,61,0.00,,,0.00,Wunderground v.1.15,2013-04-17 18:45:00,
2013-04-17 10:50:00,12.4,1.1,30.41,NNE,19,5.0,6.0,60,0.00,,,0.00,Wunderground v.1.15,2013-04-17 18:50:00,
2013-04-17 11:00:00,12.9,2.0,30.41,NNE,20,4.0,4.0,61,0.00,,,0.00,Wunderground v.1.15,2013-04-17 19:00:00,
2013-04-17 11:05:00,13.6,2.3,30.41,NNE,20,4.0,5.0,60,0.00,,,0.00,Wunderground v.1.15,2013-04-17 19:05:00,
2013-04-17 11:15:00,14.9,3.1,30.41,NNE,20,6.0,6.0,59,0.00,,,0.00,Wunderground v.1.15,2013-04-17 19:15:00,
2013-04-17 11:25:00,16.1,3.9,30.41,NNE,20,6.0,6.0,58,0.00,,,0.00,Wunderground v.1.15,2013-04-17 19:25:00,
2013-04-17 11:35:00,17.0,4.7,30.41,NNE,23,6.0,7.0,58,0.00,,,0.00,Wunderground v.1.15,2013-04-17 19:35:00,
2013-04-17 11:45:00,18.0,5.7,30.42,NNE,23,6.0,6.0,58,0.00,,,0.00,Wunderground v.1.15,2013-04-17 19:45:00,
2013-04-17 11:55:00,18.9,5.8,30.42,NNE,23,4.0,5.0,56,0.00,,,0.00,Wunderground v.1.15,2013-04-17 19:55:00,
2013-04-17 12:05:00,20.0,6.4,30.42,NNE,23,3.0,5.0,55,0.00,,,0.00,Wunderground v.1.15,2013-04-17 20:05:00,
2013-04-17 12:10:00,20.0,6.4,30.42,NNE,23,3.0,6.0,55,0.00,,,0.00,Wunderground v.1.15,2013-04-17 20:10:00,
2013-04-17 12:20:00,20.3,6.7,30.42,NNE,23,5.0,6.0,55,0.00,,,0.00,Wunderground v.1.15,2013-04-17 20:20:00,
2013-04-17 12:30:00,21.0,7.3,30.42,NNE,23,6.0,6.0,55,0.00,,,0.00,Wunderground v.1.15,2013-04-17 20:30:00,
2013-04-17 12:40:00,21.9,7.8,30.42,NNE,23,5.0,5.0,54,0.00,,,0.00,Wunderground v.1.15,2013-04-17 20:40:00,
2013-04-17 12:50:00,23.0,8.4,30.42,NNE,23,3.0,3.0,53,0.00,,,0.00,Wunderground v.1.15,2013-04-17 20:50:00,
2013-04-17 13:00:00,23.6,8.9,30.42,NNE,23,3.0,3.0,53,0.00,,,0.00,Wunderground v.1.15,2013-04-17 21:00:00,
2013-04-17 13:10:00,24.8,9.2,30.42,NNE,23,1.0,2.0,51,0.00,,,0.00,Wunderground v.1.15,2013-04-17 21:10:00,
2013-04-17 13:20:00,24.1,10.2,30.42,NNE,23,1.0,1.0,55,0.00,,,0.00,Wunderground v.1.15,2013-04-17 21:20:00,
2013-04-17 13:30:00,23.6,10.6,30.42,NNE,23,0.0,0.0,57,0.00,,,0.00,Wunderground v.1.15,2013-04-17 21:30:00,
2013-04-17 13:40:00,24.5,11.8,30.42,NNE,23,0.0,0.0,58,0.00,,,0.00,Wunderground v.1.15,2013-04-17 21:40:00,
2013-04-17 13:50:00,27.0,11.3,30.42,NNE,23,0.0,0.0,51,0.00,,,0.00,Wunderground v.1.15,2013-04-17 21:50:00,
2013-04-17 13:55:00,27.9,12.1,30.42,NNE,23,0.0,1.0,51,0.00,,,0.00,Wunderground v.1.15,2013-04-17 21:55:00,
2013-04-17 14:05:00,30.0,12.7,30.43,NNE,23,0.0,0.0,48,0.00,,,0.00,Wunderground v.1.15,2013-04-17 22:05:00,
2013-04-17 14:15:00,28.8,12.9,30.43,NNE,23,0.0,0.0,51,0.00,,,0.00,Wunderground v.1.15,2013-04-17 22:15:00,
2013-04-17 14:25:00,29.3,11.1,30.43,NNE,23,0.0,0.0,46,0.00,,,0.00,Wunderground v.1.15,2013-04-17 22:25:00,
2013-04-17 14:35:00,31.5,10.5,30.43,NNE,23,0.0,0.0,41,0.00,,,0.00,Wunderground v.1.15,2013-04-17 22:35:00,
2013-04-17 14:45:00,33.8,10.8,30.43,NNE,23,0.0,0.0,38,0.00,,,0.00,Wunderground v.1.15,2013-04-17 22:45:00,
2013-04-17 14:50:00,31.6,10.0,30.43,NNE,23,1.0,1.0,40,0.00,,,0.00,Wunderground v.1.15,2013-04-17 22:50:00,
2013-04-17 15:00:00,29.3,11.5,30.43,ESE,111,5.0,6.0,47,0.00,,,0.00,Wunderground v.1.15,2013-04-17 23:00:00,
2013-04-17 15:10:00,28.4,11.2,30.43,SE,132,6.0,6.0,48,0.00,,,0.00,Wunderground v.1.15,2013-04-17 23:10:00,
2013-04-17 15:20:00,28.7,13.7,30.43,SE,132,5.0,5.0,53,0.00,,,0.00,Wunderground v.1.15,2013-04-17 23:20:00,
2013-04-17 15:30:00,29.0,14.0,30.43,SE,132,4.0,4.0,53,0.00,,,0.00,Wunderground v.1.15,2013-04-17 23:30:00,
2013-04-17 15:40:00,29.3,13.4,30.43,SE,132,4.0,5.0,51,0.00,,,0.00,Wunderground v.1.15,2013-04-17 23:40:00,
2013-04-17 15:50:00,29.0,14.0,30.43,SE,132,5.0,5.0,53,0.00,,,0.00,Wunderground v.1.15,2013-04-17 23:50:00,
2013-04-17 16:00:00,29.5,12.2,30.43,SE,132,4.0,4.0,48,0.00,,,0.00,Wunderground v.1.15,2013-04-18 00:00:00,
2013-04-17 16:10:00,29.8,13.4,30.43,SE,125,3.0,5.0,50,0.00,,,0.00,Wunderground v.1.15,2013-04-18 00:10:00,
2013-04-17 16:20:00,30.0,14.9,30.43,ESE,109,4.0,6.0,53,0.00,,,0.00,Wunderground v.1.15,2013-04-18 00:20:00,
2013-04-17 16:25:00,29.8,15.6,30.43,East,98,5.0,6.0,55,0.00,,,0.00,Wunderground v.1.15,2013-04-18 00:25:00,
2013-04-17 16:35:00,28.8,14.6,30.42,East,101,6.0,10.0,55,0.00,,,0.00,Wunderground v.1.15,2013-04-18 00:35:00,
2013-04-17 16:45:00,29.3,15.9,30.43,ESE,102,5.0,7.0,57,0.00,,,0.00,Wunderground v.1.15,2013-04-18 00:45:00,
2013-04-17 16:55:00,29.7,14.6,30.43,ESE,107,4.0,5.0,53,0.00,,,0.00,Wunderground v.1.15,2013-04-18 00:55:00,
2013-04-17 17:05:00,30.0,15.8,30.42,ESE,104,5.0,6.0,55,0.00,,,0.00,Wunderground v.1.15,2013-04-18 01:05:00,
2013-04-17 17:15:00,29.5,15.3,30.42,ESE,107,5.0,5.0,55,0.00,,,0.00,Wunderground v.1.15,2013-04-18 01:15:00,
2013-04-17 17:20:00,29.7,15.1,30.42,ESE,104,5.0,5.0,54,0.00,,,0.00,Wunderground v.1.15,2013-04-18 01:20:00,
2013-04-17 17:30:00,29.4,15.2,30.42,ESE,104,4.0,4.0,55,0.00,,,0.00,Wunderground v.1.15,2013-04-18 01:30:00,
2013-04-17 17:40:00,30.1,15.4,30.42,ESE,111,5.0,10.0,54,0.00,,,0.00,Wunderground v.1.15,2013-04-18 01:40:00,
2013-04-17 17:50:00,29.0,14.8,30.42,SE,124,7.0,9.0,55,0.00,,,0.00,Wunderground v.1.15,2013-04-18 01:50:00,
2013-04-17 17:55:00,28.7,14.6,30.42,SE,124,8.0,10.0,55,0.00,,,0.00,Wunderground v.1.15,2013-04-18 01:55:00,
2013-04-17 18:05:00,28.7,14.1,30.42,ESE,118,8.0,8.0,54,0.00,,,0.00,Wunderground v.1.15,2013-04-18 02:05:00,
2013-04-17 18:10:00,29.0,14.0,30.42,East,101,8.0,8.0,53,0.00,,,0.00,Wunderground v.1.15,2013-04-18 02:10:00,
2013-04-17 18:20:00,28.4,13.9,30.42,ESE,111,9.0,9.0,54,0.00,,,0.00,Wunderground v.1.15,2013-04-18 02:20:00,
2013-04-17 18:30:00,28.2,12.4,30.41,ESE,102,10.0,10.0,51,0.00,,,0.00,Wunderground v.1.15,2013-04-18 02:30:00,
2013-04-17 18:40:00,27.5,13.4,30.41,SE,125,10.0,13.0,55,0.00,,,0.00,Wunderground v.1.15,2013-04-18 02:40:00,
2013-04-17 18:45:00,27.3,13.7,30.41,ESE,111,11.0,13.0,56,0.00,,,0.00,Wunderground v.1.15,2013-04-18 02:45:00,
2013-04-17 18:55:00,27.2,14.0,30.41,ESE,112,9.0,11.0,57,0.00,,,0.00,Wunderground v.1.15,2013-04-18 02:55:00,
2013-04-17 19:00:00,27.0,13.0,30.41,ESE,119,9.0,9.0,55,0.00,,,0.00,Wunderground v.1.15,2013-04-18 03:00:00,
2013-04-17 19:10:00,26.6,13.8,30.41,East,90,8.0,8.0,58,0.00,,,0.00,Wunderground v.1.15,2013-04-18 03:10:00,
2013-04-17 19:20:00,27.2,13.1,30.41,ESE,112,6.0,6.0,55,0.00,,,0.00,Wunderground v.1.15,2013-04-18 03:20:00,
2013-04-17 19:30:00,27.3,12.8,30.41,ESE,114,7.0,8.0,54,0.00,,,0.00,Wunderground v.1.15,2013-04-18 03:30:00,
2013-04-17 19:35:00,26.9,12.5,30.41,ESE,118,7.0,9.0,54,0.00,,,0.00,Wunderground v.1.15,2013-04-18 03:35:00,
2013-04-17 19:45:00,26.9,11.6,30.40,ESE,108,9.0,12.0,52,0.00,,,0.00,Wunderground v.1.15,2013-04-18 03:45:00,
2013-04-17 19:55:00,27.2,11.0,30.40,ESE,102,12.0,12.0,50,0.00,,,0.00,Wunderground v.1.15,2013-04-18 03:55:00,
2013-04-17 20:05:00,26.7,11.8,30.40,ESE,116,11.0,11.0,53,0.00,,,0.00,Wunderground v.1.15,2013-04-18 04:05:00,
2013-04-17 20:10:00,26.1,12.1,30.40,ESE,119,9.0,9.0,55,0.00,,,0.00,Wunderground v.1.15,2013-04-18 04:10:00,
2013-04-17 20:20:00,25.1,11.2,30.40,ESE,112,12.0,12.0,55,0.00,,,0.00,Wunderground v.1.15,2013-04-18 04:20:00,
2013-04-17 20:25:00,24.8,11.3,30.40,ESE,119,12.0,12.0,56,0.00,,,0.00,Wunderground v.1.15,2013-04-18 04:25:00,
2013-04-17 20:30:00,24.8,11.3,30.40,ESE,112,12.0,12.0,56,0.00,,,0.00,Wunderground v.1.15,2013-04-18 04:30:00,
2013-04-17 20:40:00,25.4,11.0,30.40,ESE,108,10.0,10.0,54,0.00,,,0.00,Wunderground v.1.15,2013-04-18 04:40:00,
2013-04-17 20:45:00,25.3,11.0,30.40,ESE,104,10.0,12.0,54,0.00,,,0.00,Wunderground v.1.15,2013-04-18 04:45:00,
2013-04-17 20:55:00,24.7,11.2,30.40,ESE,119,10.0,10.0,56,0.00,,,0.00,Wunderground v.1.15,2013-04-18 04:55:00,
2013-04-17 20:59:00,24.1,10.6,30.40,SE,129,9.0,10.0,56,0.00,,,0.00,Wunderground v.1.15,2013-04-18 04:59:00,
2013-04-17 21:04:00,24.1,10.6,30.40,ESE,109,10.0,12.0,56,0.00,,,0.00,Wunderground v.1.15,2013-04-18 05:04:00,
2013-04-17 21:10:00,24.4,10.5,30.40,ESE,119,11.0,11.0,55,0.00,,,0.00,Wunderground v.1.15,2013-04-18 05:10:00,
2013-04-17 21:20:00,24.2,9.9,30.40,ESE,116,11.0,11.0,54,0.00,,,0.00,Wunderground v.1.15,2013-04-18 05:20:00,
2013-04-17 21:30:00,23.0,10.0,30.40,ESE,108,10.0,10.0,57,0.00,,,0.00,Wunderground v.1.15,2013-04-18 05:30:00,
2013-04-17 21:40:00,21.9,9.4,30.40,ESE,112,9.0,10.0,58,0.00,,,0.00,Wunderground v.1.15,2013-04-18 05:40:00,
2013-04-17 21:49:00,21.3,8.8,30.40,ESE,118,9.0,9.0,58,0.00,,,0.00,Wunderground v.1.15,2013-04-18 05:49:00,
2013-04-17 21:55:00,21.1,8.6,30.40,ESE,112,9.0,9.0,58,0.00,,,0.00,Wunderground v.1.15,2013-04-18 05:55:00,
2013-04-17 22:05:00,21.3,8.4,30.40,East,100,8.0,10.0,57,0.00,,,0.00,Wunderground v.1.15,2013-04-18 06:05:00,
2013-04-17 22:15:00,21.8,8.1,30.40,ESE,105,10.0,10.0,55,0.00,,,0.00,Wunderground v.1.15,2013-04-18 06:15:00,
2013-04-17 22:24:00,20.5,7.3,30.40,ESE,105,10.0,10.0,56,0.00,,,0.00,Wunderground v.1.15,2013-04-18 06:24:00,
2013-04-17 22:34:00,19.7,7.3,30.40,ESE,105,11.0,11.0,58,0.00,,,0.00,Wunderground v.1.15,2013-04-18 06:34:00,
2013-04-17 22:40:00,20.2,7.4,30.40,SE,125,11.0,11.0,57,0.00,,,0.00,Wunderground v.1.15,2013-04-18 06:40:00,
2013-04-17 22:50:00,20.3,7.5,30.40,ESE,112,12.0,12.0,57,0.00,,,0.00,Wunderground v.1.15,2013-04-18 06:50:00,
2013-04-17 22:59:00,20.5,7.3,30.40,ESE,108,11.0,11.0,56,0.00,,,0.00,Wunderground v.1.15,2013-04-18 06:59:00,
2013-04-17 23:05:00,20.3,7.1,30.40,ESE,108,11.0,11.0,56,0.00,,,0.00,Wunderground v.1.15,2013-04-18 07:05:00,
2013-04-17 23:15:00,20.0,7.2,30.41,ESE,105,9.0,11.0,57,0.00,,,0.00,Wunderground v.1.15,2013-04-18 07:15:00,
2013-04-17 23:25:00,20.0,7.2,30.41,ESE,108,10.0,13.0,57,0.00,,,0.00,Wunderground v.1.15,2013-04-18 07:25:00,
2013-04-17 23:34:00,19.9,7.1,30.40,ESE,114,11.0,12.0,57,0.00,,,0.00,Wunderground v.1.15,2013-04-18 07:34:00,
2013-04-17 23:40:00,19.7,7.3,30.40,SE,124,11.0,12.0,58,0.00,,,0.00,Wunderground v.1.15,2013-04-18 07:40:00,
2013-04-17 23:50:00,20.5,7.3,30.40,ESE,115,13.0,16.0,56,0.00,,,0.00,Wunderground v.1.15,2013-04-18 07:50:00,